Date,TemperatureHighF,TemperatureAvgF,TemperatureLowF,DewpointHighF,DewpointAvgF,DewpointLowF,HumidityHigh,HumidityAvg,HumidityLow,PressureMaxIn,PressureMinIn,WindSpeedMaxMPH,WindSpeedAvgMPH,GustSpeedMaxMPH,PrecipitationSumIn
2013-1-1,36.7,31.8,23.5,27.8,21.5,11.3,73,65,56,29.99,29.83,5,2,12,0.00
2013-1-2,30.7,23.2,18.7,12.6,10.4,8.6,68,58,44,30.15,29.96,5,2,11,0.00
2013-1-3,34.1,23.5,18.0,16.8,12.2,9.7,70,62,42,30.16,30.03,2,0,8,0.00
2013-1-4,37.7,29.3,23.5,21.2,18.2,14.3,71,63,47,30.06,29.93,4,1,12,0.00
2013-1-5,42.3,31.0,26.3,20.3,17.5,14.0,71,58,40,30.26,29.99,6,2,15,0.00
2013-1-6,43.8,33.4,27.0,26.8,23.2,17.6,77,66,49,30.22,29.95,2,0,7,0.00
2013-1-7,43.5,33.7,23.8,25.4,21.9,17.0,75,63,41,30.37,30.00,5,1,11,0.00
2013-1-8,45.3,32.7,23.8,28.1,22.6,17.0,78,67,50,30.38,30.31,2,0,8,0.00
2013-1-9,40.9,31.5,24.0,32.9,25.1,18.4,82,77,69,30.37,30.13,2,0,7,0.00
2013-1-10,46.4,37.9,33.5,29.8,25.0,22.2,80,60,44,30.52,29.58,6,2,12,0.00
2013-1-11,41.8,35.8,31.3,41.4,28.8,22.2,100,76,66,30.52,30.09,3,1,6,0.39
2013-1-12,47.0,42.4,38.0,44.0,40.9,38.0,100,94,85,30.16,30.07,2,0,4,0.01
2013-1-13,45.8,43.5,41.3,45.8,41.4,-99.9,100,98,93,30.14,30.00,2,0,5,0.01
2013-1-14,54.6,46.8,36.8,52.8,41.4,29.3,100,83,58,30.28,29.90,6,2,13,0.07
2013-1-15,36.7,34.5,32.8,30.2,27.5,24.9,86,76,68,30.33,30.19,3,1,7,0.14
2013-1-16,33.1,32.0,30.4,30.8,28.9,27.1,91,88,81,30.19,29.82,2,0,6,0.62
2013-1-17,42.5,35.0,32.6,30.8,27.7,21.8,92,75,58,30.08,29.90,4,1,10,0.00
2013-1-18,32.4,26.0,21.2,22.5,12.4,5.2,71,57,38,30.42,29.98,7,2,17,0.00
2013-1-19,43.8,33.4,20.9,28.4,21.8,10.3,73,63,48,30.36,29.91,2,0,11,0.00
2013-1-20,51.1,37.2,26.2,30.6,22.3,10.5,76,56,33,30.01,29.70,6,2,15,0.00
2013-1-21,28.8,25.0,20.9,15.8,11.3,8.1,71,56,45,30.06,29.81,4,1,13,0.00
2013-1-22,22.7,16.8,9.5,9.4,-0.6,-7.6,58,46,33,30.16,29.80,6,3,14,0.00
2013-1-23,19.5,11.7,7.1,-0.5,-4.2,-8.4,62,49,36,30.19,30.11,4,2,11,0.00
2013-1-24,24.5,12.7,5.6,1.6,-1.4,-4.3,71,54,31,30.37,30.07,8,2,19,0.00
2013-1-25,23.8,14.9,9.1,10.4,1.9,-5.9,74,57,39,30.37,30.01,5,1,10,0.02
2013-1-26,28.7,17.3,7.9,8.6,5.4,1.1,78,61,41,30.34,30.00,6,2,16,0.00
2013-1-27,35.8,21.1,8.7,14.8,8.5,1.5,74,59,39,30.49,30.34,5,1,11,0.00
2013-1-28,32.5,27.1,17.8,29.9,21.8,9.2,90,80,65,30.45,29.99,2,0,5,0.13
2013-1-29,50.3,40.2,32.4,46.2,37.2,29.8,100,90,74,30.13,29.99,3,0,7,0.02
2013-1-30,57.6,47.3,40.2,57.6,44.3,-99.9,100,98,94,30.05,29.35,2,0,8,0.25
2013-1-31,58.9,40.7,24.8,58.9,30.1,9.7,100,68,43,29.76,29.07,7,4,25,0.89
2013-2-1,29.4,23.9,18.2,14.4,10.7,3.0,75,58,33,30.19,29.76,7,2,18,0.00
2013-2-2,28.2,20.6,13.7,16.1,8.7,4.1,80,61,40,30.25,30.00,2,1,10,0.07
2013-2-3,31.2,22.6,18.0,18.9,15.3,12.4,81,74,60,30.00,29.77,2,0,7,0.01
2013-2-4,30.8,22.6,17.5,17.0,10.5,7.4,82,60,43,29.95,29.78,4,2,17,0.00
2013-2-5,29.5,26.4,23.1,24.5,19.8,12.3,85,76,62,29.94,29.86,1,0,4,0.03
2013-2-6,37.2,29.9,23.7,25.1,19.9,8.2,87,67,49,30.32,29.89,4,1,10,0.00
2013-2-7,31.2,25.1,18.4,18.5,10.7,6.3,69,54,43,30.45,30.28,3,1,6,0.00
2013-2-8,33.4,30.6,28.2,28.8,25.3,18.6,87,80,67,30.28,29.65,4,2,12,0.22
2013-2-9,34.8,26.0,16.6,26.1,13.8,3.4,87,61,38,30.33,29.75,9,4,20,0.09
2013-2-10,40.3,25.2,13.8,18.1,10.6,3.7,70,55,32,30.44,30.28,6,1,9,0.00
2013-2-11,39.3,33.1,27.3,38.2,29.1,17.0,100,85,64,30.29,29.66,2,0,6,0.32
2013-2-12,40.0,35.9,30.1,36.2,26.0,21.4,100,68,55,29.97,29.72,4,2,10,0.00
2013-2-13,45.8,33.3,22.9,29.9,23.7,18.2,88,69,46,29.94,29.68,2,0,5,0.15
2013-2-14,46.2,35.2,28.8,29.7,27.4,22.8,89,74,49,29.99,29.70,2,0,6,0.02
2013-2-15,53.7,38.7,27.8,33.2,28.0,22.9,85,67,43,30.00,29.91,3,1,8,0.02
2013-2-16,36.6,31.9,26.1,30.5,21.8,9.4,87,67,48,29.96,29.75,5,2,12,0.05
2013-2-17,32.0,23.7,14.8,10.3,4.5,-1.5,54,44,33,29.97,29.67,9,6,20,0.00
2013-2-18,36.8,23.0,12.8,12.3,5.7,-1.1,56,48,32,30.22,29.98,7,3,17,0.00
2013-2-19,38.8,30.1,20.1,35.7,21.3,10.7,92,70,53,30.16,29.68,4,1,10,0.33
2013-2-20,33.0,27.2,21.4,23.9,13.1,7.4,69,55,42,29.97,29.72,8,4,18,0.00
2013-2-21,34.5,25.2,20.0,14.7,11.1,7.8,65,55,42,30.27,29.95,7,4,19,0.00
2013-2-22,35.6,27.9,19.3,26.0,17.9,10.1,79,66,54,30.36,30.23,4,2,9,0.00
2013-2-23,39.5,35.7,31.7,37.6,33.4,25.9,95,91,79,30.24,29.81,3,1,6,0.14
2013-2-24,44.5,35.5,29.3,36.3,28.7,19.2,92,77,62,29.97,29.76,5,2,12,0.01
2013-2-25,42.2,34.1,27.7,28.4,24.4,19.7,79,68,55,30.22,29.96,4,2,15,0.00
2013-2-26,41.6,34.1,26.3,30.7,27.1,22.6,89,76,60,30.26,29.85,6,2,14,0.15
2013-2-27,46.4,39.9,33.5,43.5,36.5,30.6,93,88,77,29.85,29.51,7,3,13,0.18
2013-2-28,49.0,38.6,31.6,34.9,31.0,27.0,90,75,55,29.63,29.55,3,1,7,0.00
2013-3-1,44.1,35.7,30.3,28.3,26.5,22.6,87,70,51,29.79,29.61,5,3,12,0.00
2013-3-2,38.6,32.2,27.7,23.8,21.1,18.2,75,64,53,29.78,29.70,5,3,13,0.00
2013-3-3,36.3,29.3,25.6,18.8,16.4,12.6,69,58,48,29.76,29.68,7,4,16,0.00
2013-3-4,43.0,31.8,24.4,19.8,16.9,12.3,66,55,39,29.91,29.76,7,4,18,0.00
2013-3-5,50.6,36.7,28.2,26.5,21.9,18.5,68,56,37,30.02,29.91,6,2,16,0.00
2013-3-6,41.8,36.8,34.5,32.9,28.1,23.7,83,71,63,29.95,29.84,8,4,18,0.03
2013-3-7,42.6,35.6,31.1,31.4,25.9,22.3,85,68,53,30.08,29.93,5,4,15,0.02
2013-3-8,41.0,33.6,28.3,30.7,26.4,22.9,86,75,62,30.21,30.00,7,4,21,0.07
2013-3-9,59.1,40.8,29.6,25.9,22.2,19.4,69,50,22,30.31,30.17,5,2,11,0.00
2013-3-10,54.6,37.5,25.4,34.6,26.5,20.1,84,66,38,30.36,30.25,4,1,8,0.00
2013-3-11,54.5,43.8,35.0,45.3,38.7,30.9,93,83,56,30.29,30.07,5,2,7,0.00
2013-3-12,56.3,49.7,40.8,56.1,47.1,35.4,100,91,79,30.06,29.68,5,3,11,0.95
2013-3-13,51.2,40.3,32.4,35.5,29.2,22.1,89,66,38,29.89,29.80,4,2,10,0.00
2013-3-14,42.7,31.9,26.9,22.1,12.6,5.9,66,46,27,29.94,29.83,7,4,17,0.00
2013-3-15,43.8,36.1,23.4,28.7,19.7,9.5,63,51,42,29.97,29.71,5,2,12,0.00
2013-3-16,39.3,33.0,29.7,27.7,24.1,19.0,82,70,53,29.89,29.76,4,0,8,0.12
2013-3-17,36.7,31.5,25.5,26.2,18.2,12.2,85,59,44,30.27,29.89,5,2,11,0.00
2013-3-18,33.4,27.3,23.0,27.9,15.4,8.0,88,62,48,30.36,29.96,5,2,10,0.31
2013-3-19,45.5,35.9,31.1,34.4,30.1,18.5,91,80,54,29.94,29.69,4,2,11,0.25
2013-3-20,46.5,34.9,26.2,22.6,19.6,17.4,71,55,36,29.87,29.76,4,2,16,0.00
2013-3-21,41.0,31.8,25.9,25.3,16.3,11.0,80,54,33,29.82,29.62,5,2,12,0.00
2013-3-22,42.0,31.8,23.3,20.6,17.2,10.5,69,55,39,29.88,29.71,4,2,11,0.00
2013-3-23,47.5,36.3,28.5,22.0,18.9,16.3,68,50,33,29.93,29.83,7,3,17,0.00
2013-3-24,49.3,37.9,25.9,22.8,19.3,16.0,68,48,33,29.94,29.69,6,2,13,0.00
2013-3-25,38.6,35.8,33.5,32.3,27.6,22.1,85,72,57,29.69,29.47,3,1,8,0.04
2013-3-26,50.9,39.7,32.7,32.4,27.7,23.4,86,65,35,29.87,29.60,5,2,11,0.01
2013-3-27,54.2,39.8,28.6,30.4,25.7,21.1,77,59,29,29.99,29.87,7,2,15,0.00
2013-3-28,50.0,40.3,31.2,30.1,27.4,25.1,79,61,42,30.12,29.95,5,3,12,0.00
2013-3-29,55.1,44.3,32.9,29.1,27.1,24.9,72,52,33,30.14,30.07,6,3,14,0.00
2013-3-30,62.0,45.0,29.6,30.0,24.4,19.1,81,49,20,30.17,30.06,4,1,11,0.00
2013-3-31,55.6,41.7,28.4,40.9,30.6,19.9,92,67,37,30.12,29.69,6,2,13,0.18
2013-4-1,63.0,46.0,33.2,45.8,34.4,11.0,94,67,36,29.91,29.65,6,2,15,0.02
2013-4-2,47.0,35.3,26.3,17.7,13.2,8.8,59,41,26,30.08,29.91,5,2,14,0.00
2013-4-3,47.8,35.9,26.8,14.8,11.5,7.4,53,37,25,30.27,30.06,7,3,15,0.00
2013-4-4,58.3,41.0,27.3,24.4,18.0,10.9,56,41,26,30.36,30.06,5,1,16,0.00
2013-4-5,66.1,47.9,34.1,28.2,23.2,18.1,68,41,19,30.06,29.75,8,3,15,0.00
2013-4-6,57.7,42.0,30.5,22.3,15.3,11.3,56,36,17,30.28,29.99,6,2,15,0.00
2013-4-7,65.8,47.7,32.3,39.5,31.4,22.0,75,56,29,30.28,29.99,6,1,12,0.00
2013-4-8,80.2,61.4,46.3,47.6,42.0,38.5,77,53,24,30.09,29.98,4,1,9,0.00
2013-4-9,86.6,67.8,51.5,51.7,44.6,37.0,83,49,21,30.01,29.93,5,1,13,0.00
2013-4-10,86.8,66.4,54.9,57.4,51.7,43.9,92,62,34,29.96,29.83,5,1,15,0.58
2013-4-11,59.0,54.4,45.4,56.2,49.5,40.5,95,84,66,30.02,29.81,7,2,11,0.00
2013-4-12,45.5,41.6,39.4,40.6,38.2,36.1,91,87,73,30.00,29.71,6,3,14,0.32
2013-4-13,60.0,47.7,37.6,40.5,36.0,32.5,93,67,40,29.97,29.75,4,1,11,0.01
2013-4-14,61.0,50.2,39.0,37.5,31.5,27.8,79,51,29,30.19,29.96,5,1,12,0.00
2013-4-15,61.8,49.3,40.1,37.2,31.0,25.7,69,50,36,30.35,30.19,4,2,9,0.00
2013-4-16,70.8,57.6,44.9,54.9,47.2,37.1,84,69,52,30.35,30.12,4,2,10,0.00
2013-4-17,74.5,61.0,49.4,53.9,40.5,31.3,85,52,23,30.30,30.13,4,1,10,0.01
2013-4-18,56.6,50.1,42.0,49.8,42.3,36.4,92,75,55,30.32,30.09,5,2,10,0.00
2013-4-19,76.8,63.5,52.4,63.0,58.4,50.1,100,84,62,30.09,29.65,5,2,10,0.69
2013-4-20,61.3,50.8,41.8,50.1,34.2,20.9,88,56,30,30.30,29.72,5,3,12,0.11
2013-4-21,59.3,44.2,32.5,27.0,21.6,17.7,63,42,26,30.60,30.30,5,2,11,0.00
2013-4-22,55.5,43.3,31.3,34.7,29.8,26.4,83,60,41,30.63,30.46,5,2,11,0.00
2013-4-23,49.7,43.3,36.2,39.2,34.4,28.9,79,71,64,30.46,30.12,3,1,9,0.00
2013-4-24,74.0,55.7,34.6,52.3,44.0,31.1,89,67,45,30.13,29.82,4,1,8,0.00
2013-4-25,69.7,54.4,41.9,51.8,30.6,24.7,81,43,21,30.27,29.87,6,2,17,0.00
2013-4-26,69.7,53.4,39.0,35.6,29.1,23.1,68,43,21,30.41,30.26,4,1,10,0.00
2013-4-27,73.6,56.5,38.9,36.9,31.2,27.1,71,41,23,30.43,30.28,3,1,8,0.00
2013-4-28,73.6,56.9,38.1,41.4,35.9,30.2,80,49,29,30.31,30.18,3,1,8,0.00
2013-4-29,54.3,50.9,49.8,48.5,46.2,36.5,93,84,51,30.24,30.16,4,2,8,0.13
2013-4-30,67.5,54.8,43.5,48.7,40.0,24.5,92,63,27,30.34,30.19,4,1,8,0.00
2013-5-1,72.0,53.8,36.9,43.3,34.6,27.3,77,53,22,30.48,30.33,4,1,8,0.00
2013-5-2,78.4,57.8,39.7,45.3,40.5,35.7,88,57,29,30.47,30.34,2,0,7,0.00
2013-5-3,70.7,56.6,44.5,42.3,36.8,30.8,79,50,24,30.44,30.35,3,2,8,0.00
2013-5-4,75.0,55.2,40.3,42.9,39.3,36.0,88,60,27,30.37,30.22,3,1,7,0.00
2013-5-5,70.9,51.9,40.1,43.2,38.6,35.3,87,64,29,30.29,30.20,3,1,7,0.00
2013-5-6,73.5,54.6,39.2,52.6,45.1,34.8,86,72,46,30.26,30.15,3,1,6,0.00
2013-5-7,74.0,60.1,45.4,56.4,50.6,42.6,92,73,49,30.18,30.09,3,1,6,0.00
2013-5-8,66.0,60.3,54.2,60.8,57.0,51.3,94,89,80,30.12,29.97,2,1,5,0.83
2013-5-9,67.8,58.1,52.7,56.7,53.4,50.1,94,85,65,30.01,29.92,1,0,4,0.07
2013-5-10,79.2,65.1,51.3,60.1,55.3,48.8,93,73,44,30.02,29.93,1,0,5,0.02
2013-5-11,68.9,63.5,59.1,63.3,60.3,56.8,93,89,80,29.95,29.74,1,0,4,0.68
2013-5-12,66.3,57.5,46.9,56.8,42.1,28.6,92,60,31,29.95,29.70,3,1,12,0.00
2013-5-13,54.3,46.9,40.0,32.5,30.0,25.0,71,53,36,30.11,29.95,2,1,8,0.00
2013-5-14,63.3,47.7,33.5,34.4,29.4,24.2,84,54,24,30.14,30.02,2,0,6,0.00
2013-5-15,71.7,56.7,40.2,56.3,45.5,32.6,79,67,54,30.07,29.70,2,0,7,0.00
2013-5-16,81.0,66.3,53.1,57.7,52.2,46.4,89,64,36,29.88,29.75,1,0,5,0.00
2013-5-17,72.3,61.5,53.5,47.3,41.9,39.3,69,50,33,30.21,29.89,2,0,7,0.00
2013-5-18,60.1,54.7,48.3,54.1,48.6,41.7,91,80,64,30.30,30.21,0,0,0,0.04
2013-5-19,57.9,55.8,54.0,57.5,54.0,51.9,100,94,89,30.30,30.17,2,0,4,0.15
2013-5-20,76.2,64.7,55.9,67.0,59.1,-99.9,100,88,71,30.19,30.00,1,0,4,0.01
2013-5-21,84.0,70.9,59.1,71.0,65.1,56.8,94,83,63,30.01,29.89,1,0,5,0.00
2013-5-22,80.2,71.0,64.7,71.7,66.5,62.3,94,86,74,29.96,29.86,1,0,3,0.00
2013-5-23,74.0,68.5,62.7,69.2,65.9,60.1,95,91,83,29.93,29.78,2,0,6,1.41
2013-5-24,66.0,52.3,42.7,64.5,49.3,39.5,95,90,82,29.98,29.73,3,1,10,0.37
2013-5-25,53.3,47.3,41.6,42.3,39.2,35.3,91,75,55,30.02,29.92,4,2,11,0.24
2013-5-26,65.8,54.0,44.0,40.4,37.4,32.9,79,56,33,30.22,29.99,3,1,11,0.00
2013-5-27,73.1,56.8,39.4,46.5,40.4,34.8,84,57,31,30.25,30.14,1,0,6,0.00
2013-5-28,57.6,54.2,47.9,54.2,50.2,43.3,94,86,73,30.23,30.13,1,0,2,0.35
2013-5-29,80.7,66.7,55.9,70.7,62.2,54.2,100,86,68,30.15,30.05,1,0,4,0.01
2013-5-30,86.5,75.0,66.8,68.8,64.9,61.9,91,72,50,30.18,30.11,1,0,5,0.00
2013-5-31,88.1,76.2,67.0,71.2,65.6,60.9,88,71,48,30.17,30.05,1,0,4,0.00
2013-6-1,87.5,76.2,66.2,70.9,66.6,62.5,89,73,56,30.07,29.96,1,0,5,0.00
2013-6-2,83.5,75.4,67.7,70.6,67.4,64.1,91,77,62,29.97,29.83,1,0,5,0.38
2013-6-3,74.5,69.1,62.7,67.5,63.1,49.1,93,82,61,29.93,29.84,1,0,3,0.20
2013-6-4,71.9,62.1,53.4,49.7,46.4,42.6,72,57,39,30.15,29.93,2,0,5,0.00
2013-6-5,73.3,62.2,52.7,50.9,45.8,38.2,75,56,43,30.22,30.12,1,0,3,0.00
2013-6-6,66.9,58.9,51.1,57.8,53.3,47.4,93,82,63,30.16,30.01,2,1,5,0.20
2013-6-7,61.7,59.7,58.0,61.7,33.7,-99.9,100,83,93,30.01,29.65,1,0,4,1.93
2013-6-8,70.8,63.8,56.3,64.5,59.3,-99.9,100,88,77,30.09,29.64,1,0,6,0.13
2013-6-9,77.4,66.5,57.3,62.7,58.8,54.7,92,77,58,30.20,30.09,1,0,4,0.00
2013-6-10,65.6,63.5,62.1,65.6,61.3,58.5,100,93,87,30.19,29.83,2,0,5,0.92
2013-6-11,74.5,69.0,64.7,67.9,55.8,-99.9,100,83,74,29.83,29.68,2,0,7,0.03
2013-6-12,75.2,67.1,60.2,60.8,57.0,53.3,87,71,52,29.89,29.75,2,0,5,0.00
2013-6-13,60.5,59.2,55.4,59.6,56.7,53.3,97,91,83,29.89,29.47,2,0,6,0.75
2013-6-14,69.6,58.2,52.0,59.4,53.6,48.6,93,85,67,29.93,29.57,2,0,9,0.44
2013-6-15,75.1,63.8,53.2,61.4,56.6,51.4,95,79,54,30.04,29.92,1,0,4,0.00
2013-6-16,74.9,65.5,54.8,65.6,58.6,51.6,90,79,60,30.03,29.82,1,0,6,0.00
2013-6-17,80.2,69.6,61.6,69.4,63.8,58.9,92,83,60,29.95,29.88,1,0,5,0.09
2013-6-18,76.8,67.5,60.7,69.3,63.2,58.1,93,87,68,29.94,29.85,1,0,3,0.34
2013-6-19,71.9,63.0,56.2,58.1,53.5,50.1,92,73,50,30.19,29.92,1,0,4,0.00
2013-6-20,76.2,64.2,51.6,60.4,55.6,48.2,90,75,56,30.29,30.19,1,0,4,0.00
2013-6-21,79.6,67.2,55.0,62.4,57.0,50.9,87,71,52,30.33,30.26,1,0,4,0.00
2013-6-22,80.2,68.7,55.5,67.8,61.1,51.7,88,77,64,30.30,30.16,1,0,5,0.00
2013-6-23,83.7,72.8,62.9,72.3,67.2,60.8,95,83,66,30.23,30.10,1,0,4,0.00
2013-6-24,86.4,74.8,68.2,73.3,69.3,65.2,96,84,62,30.13,30.02,1,0,4,0.03
2013-6-25,84.8,73.5,67.3,74.9,69.3,65.1,96,87,66,30.06,29.87,1,0,5,0.61
2013-6-26,79.4,72.3,66.3,71.9,68.4,65.1,97,88,75,29.92,29.85,1,0,6,0.01
2013-6-27,82.9,73.7,67.2,73.8,69.3,65.4,97,87,68,29.88,29.58,2,0,6,1.68
2013-6-28,79.6,73.2,68.6,72.0,69.4,65.5,98,88,73,29.61,29.52,1,0,5,0.05
2013-6-29,80.6,71.8,65.6,69.3,66.2,63.8,96,84,66,29.75,29.53,0,0,5,0.00
2013-6-30,79.3,71.6,63.6,73.2,68.5,61.8,96,90,81,29.95,29.75,1,0,4,0.01
2013-7-1,73.6,71.9,69.7,73.0,71.1,68.5,100,97,93,30.08,29.93,1,0,3,1.10
2013-7-2,78.3,73.7,71.3,74.9,71.1,-99.9,100,95,87,30.23,30.08,1,0,3,0.02
2013-7-3,79.3,74.2,69.9,74.9,71.4,68.5,97,91,83,30.29,30.22,0,0,4,0.01
2013-7-4,84.5,76.6,71.3,75.5,72.5,70.4,98,88,72,30.30,30.21,1,0,6,0.00
2013-7-5,86.8,77.8,71.3,75.3,72.2,69.3,96,84,67,30.26,30.15,1,0,4,0.00
2013-7-6,86.8,78.7,72.0,76.3,72.9,70.2,95,83,68,30.20,30.10,1,0,6,0.00
2013-7-7,87.5,78.7,71.0,77.3,72.9,68.2,94,83,69,30.13,30.01,1,0,4,0.03
2013-7-8,83.3,74.5,67.9,72.2,68.7,65.5,93,83,67,30.10,30.03,1,0,5,0.00
2013-7-9,82.5,73.8,67.0,73.4,68.5,64.1,95,84,69,30.12,30.05,1,0,5,0.17
2013-7-10,80.4,74.6,69.5,74.8,71.7,68.3,100,91,77,30.06,29.87,1,0,6,0.04
2013-7-11,78.5,74.2,70.5,72.7,69.3,61.7,97,85,71,29.98,29.86,0,0,3,0.01
2013-7-12,73.4,70.1,67.4,68.8,65.2,60.8,96,85,72,30.12,29.97,1,0,4,0.11
2013-7-13,76.2,70.3,65.5,74.6,65.8,-99.9,100,95,92,30.33,30.12,1,0,3,0.09
2013-7-14,83.9,76.8,72.4,75.4,73.1,70.7,100,89,71,30.39,30.30,1,0,5,0.01
2013-7-15,85.1,78.2,71.7,76.7,73.1,69.8,96,85,72,30.31,30.21,0,0,3,0.00
2013-7-16,85.6,78.0,71.9,72.0,69.8,67.0,91,77,59,30.28,30.20,1,0,3,0.00
2013-7-17,87.3,78.2,70.4,72.7,69.7,66.7,88,76,58,30.26,30.13,0,0,2,0.00
2013-7-18,88.9,80.8,73.8,75.2,72.3,68.5,86,76,60,30.14,30.03,0,0,2,0.00
2013-7-19,89.9,80.9,73.6,76.6,73.0,69.2,87,77,62,30.05,29.88,1,0,4,0.00
2013-7-20,86.5,79.3,74.6,74.3,70.4,67.4,83,75,60,29.91,29.81,1,0,6,0.00
2013-7-21,81.8,76.0,70.8,69.9,67.2,64.5,87,75,61,30.01,29.90,1,0,2,0.00
2013-7-22,82.0,73.4,67.9,72.6,68.6,63.7,94,85,72,30.01,29.85,1,0,3,0.63
2013-7-23,80.5,74.3,70.7,72.9,70.9,67.3,100,90,74,29.85,29.64,0,0,3,0.78
2013-7-24,74.1,69.8,62.2,67.3,62.5,51.9,92,78,63,29.99,29.68,2,0,5,0.00
2013-7-25,66.4,62.5,58.9,59.1,54.0,48.8,81,74,69,30.08,29.97,1,0,5,0.00
2013-7-26,77.1,67.9,61.9,62.6,59.0,56.3,85,74,55,30.08,30.03,1,0,3,0.00
2013-7-27,78.4,68.1,57.4,66.0,60.6,53.8,89,78,60,30.09,29.98,2,0,3,0.00
2013-7-28,72.3,67.3,63.5,69.3,64.4,59.2,100,90,78,30.03,29.94,1,0,3,0.93
2013-7-29,76.2,68.2,62.1,67.4,62.0,55.6,100,82,56,30.16,30.00,1,0,4,0.00
2013-7-30,75.5,65.7,57.8,61.6,57.5,53.3,88,76,58,30.22,30.15,1,0,4,0.00
2013-7-31,75.8,66.5,56.9,64.2,59.3,53.3,89,78,61,30.20,30.08,1,0,3,0.00
2013-8-1,66.6,65.0,63.1,66.6,56.1,-99.9,100,89,86,30.08,29.88,2,0,5,0.63
2013-8-2,77.1,68.5,61.2,66.3,57.6,-99.9,100,81,62,29.98,29.85,1,0,5,0.00
2013-8-3,72.1,66.1,62.6,65.9,61.6,57.2,94,86,78,29.96,29.89,1,0,5,0.42
2013-8-4,72.1,64.5,56.6,61.4,57.6,52.2,94,79,59,30.03,29.90,2,0,5,0.00
2013-8-5,71.9,62.6,52.8,56.8,52.6,48.4,88,71,52,30.11,30.02,1,0,4,0.00
2013-8-6,75.5,65.0,54.2,61.7,56.6,50.6,89,76,52,30.16,30.07,1,0,3,0.00
2013-8-7,72.7,67.3,63.2,67.2,63.8,59.9,94,89,76,30.17,30.09,1,0,3,0.18
2013-8-8,77.4,71.1,67.5,73.3,58.5,-99.9,100,87,82,30.11,30.03,1,0,3,0.19
2013-8-9,79.1,73.4,70.6,75.4,71.6,68.8,100,94,85,30.06,29.87,1,0,4,0.26
2013-8-10,74.4,70.0,65.9,69.5,65.0,58.1,94,85,71,30.10,29.94,1,0,4,0.00
2013-8-11,74.0,67.0,58.4,64.6,58.7,53.3,87,75,59,30.16,30.06,0,0,2,0.00
2013-8-12,74.7,68.3,64.4,64.7,62.9,59.9,93,84,66,30.08,29.97,0,0,2,0.05
2013-8-13,73.4,67.9,63.7,69.4,65.0,60.7,94,91,84,29.98,29.74,1,0,4,0.95
2013-8-14,67.6,61.4,55.7,62.4,53.1,48.4,92,75,61,30.08,29.82,2,1,7,0.00
2013-8-15,70.2,60.9,53.1,55.3,51.7,48.2,86,73,55,30.17,30.09,1,0,3,0.00
2013-8-16,73.6,62.2,52.3,58.9,53.8,48.3,88,75,51,30.23,30.15,1,0,3,0.00
2013-8-17,74.3,64.2,54.2,61.7,56.8,50.7,90,78,60,30.31,30.24,0,0,2,0.00
2013-8-18,68.1,64.3,59.6,62.8,59.8,56.1,91,85,76,30.30,30.17,0,0,1,0.05
2013-8-19,71.5,65.8,60.1,64.3,61.2,57.5,92,85,74,30.18,30.08,0,0,3,0.00
2013-8-20,78.8,70.1,62.4,67.9,64.1,60.0,93,82,62,30.19,30.09,1,0,2,0.00
2013-8-21,80.0,70.1,61.0,66.9,63.0,57.7,90,79,58,30.23,30.11,0,0,3,0.00
2013-8-22,74.4,69.0,65.8,72.2,66.5,62.6,94,92,88,30.12,29.93,2,0,3,1.44
2013-8-23,71.9,68.1,64.2,65.7,61.6,55.3,94,81,63,30.15,29.94,1,0,4,0.00
2013-8-24,73.0,64.4,57.3,58.2,53.6,49.6,85,69,51,30.38,30.15,1,0,4,0.00
2013-8-25,74.6,63.3,52.6,59.9,55.4,49.0,90,76,57,30.42,30.27,1,0,3,0.00
2013-8-26,74.4,67.5,60.8,67.8,61.7,55.3,92,82,70,30.27,29.97,1,0,4,0.08
2013-8-27,78.1,71.8,67.1,69.6,66.8,64.7,94,85,71,29.97,29.88,1,0,4,0.01
2013-8-28,72.8,69.7,65.7,70.4,67.7,63.0,100,93,90,29.96,29.90,0,0,2,0.82
2013-8-29,73.8,69.8,67.0,70.4,65.7,-99.9,100,93,83,30.08,29.94,0,0,0,0.02
2013-8-30,76.9,70.6,66.3,70.2,66.7,63.6,93,88,76,30.07,29.91,1,0,4,0.00
2013-8-31,78.5,73.4,69.7,73.9,70.1,67.3,93,89,83,29.93,29.84,0,0,3,0.00
2013-9-1,78.0,73.9,70.2,73.4,70.4,67.8,94,89,81,29.90,29.84,2,0,5,0.02
2013-9-2,73.8,70.7,68.6,72.4,69.4,66.5,100,96,92,29.86,29.76,0,0,2,0.53
2013-9-3,73.3,68.0,61.7,68.1,63.3,57.8,95,85,71,29.94,29.77,2,0,4,0.01
2013-9-4,73.2,64.3,57.3,63.2,58.2,54.5,91,81,68,30.04,29.93,1,0,4,0.00
2013-9-5,69.6,63.0,54.6,60.6,54.5,47.9,91,75,50,30.18,29.97,1,0,5,0.00
2013-9-6,64.8,55.9,50.3,48.3,45.1,42.4,83,68,48,30.28,30.15,1,0,3,0.00
2013-9-7,70.6,58.4,46.0,57.0,50.2,42.6,89,75,51,30.15,29.93,0,0,3,0.00
2013-9-8,73.0,64.8,57.4,63.3,55.6,44.5,87,73,54,30.11,29.85,1,0,6,0.00
2013-9-9,68.0,59.4,48.5,59.1,50.7,43.0,85,73,62,30.25,30.10,1,0,4,0.00
2013-9-10,79.2,70.1,62.7,72.3,66.0,58.1,94,87,78,30.20,30.10,0,0,0,0.00
2013-9-11,84.5,76.3,69.6,77.2,72.1,67.7,94,87,76,30.17,30.05,0,0,0,0.00
2013-9-12,78.7,71.8,66.5,73.9,68.9,64.5,94,91,79,30.05,29.74,1,0,7,0.64
2013-9-13,67.7,63.6,55.1,64.7,58.0,47.6,94,82,66,29.90,29.69,2,0,5,0.07
2013-9-14,60.5,54.2,48.2,49.5,46.1,43.3,84,74,65,30.15,29.90,2,0,6,0.00
2013-9-15,64.1,53.7,42.6,52.7,47.0,39.3,90,79,59,30.23,30.10,0,0,3,0.00
2013-9-16,65.3,57.8,53.2,55.0,52.1,46.8,93,82,66,30.26,30.05,2,0,4,0.04
2013-9-17,59.9,51.6,44.2,46.6,41.4,37.1,85,69,52,30.44,30.26,1,0,5,0.00
2013-9-18,64.2,51.4,40.1,50.0,43.6,36.2,90,76,52,30.37,30.21,1,0,2,0.00
2013-9-19,67.7,55.0,43.6,53.6,47.7,39.7,89,77,57,30.21,30.10,0,0,3,0.00
2013-9-20,71.8,58.8,47.1,59.8,52.7,43.7,91,81,61,30.11,30.01,1,0,3,0.00
2013-9-21,71.0,61.6,52.7,63.2,56.7,49.5,93,84,64,30.04,29.70,1,0,5,0.64
2013-9-22,62.9,57.6,51.6,60.2,50.4,41.0,94,78,59,29.95,29.70,2,1,5,0.11
2013-9-23,58.9,52.1,46.5,45.2,41.9,39.3,78,69,58,30.06,29.94,2,1,6,0.00
2013-9-24,63.7,53.1,43.0,50.2,44.0,38.2,84,72,56,30.07,29.92,2,0,4,0.00
2013-9-25,64.1,55.0,47.1,51.5,46.0,41.2,86,72,56,29.99,29.90,1,0,3,0.00
2013-9-26,65.0,55.8,46.8,56.3,50.8,43.4,92,84,69,30.12,29.96,1,0,3,0.00
2013-9-27,64.9,56.5,49.1,53.5,49.7,45.4,89,78,61,30.29,30.12,1,0,3,0.00
2013-9-28,67.6,58.0,51.8,52.8,50.5,47.9,89,77,54,30.35,30.26,1,0,3,0.00
2013-9-29,65.4,55.2,46.7,54.4,49.6,43.2,91,82,66,30.26,30.10,1,0,3,0.00
2013-9-30,65.9,55.1,44.8,53.4,48.6,41.5,90,80,60,30.11,30.00,0,0,3,0.00
2013-10-1,70.4,59.6,49.9,61.6,53.9,46.2,90,82,69,30.04,29.94,1,0,3,0.00
2013-10-2,73.6,63.7,54.3,63.0,57.4,51.0,91,81,68,30.07,29.97,1,0,5,0.00
2013-10-3,71.0,63.1,54.6,61.3,56.8,51.1,89,81,59,30.16,30.07,0,0,2,0.00
2013-10-4,76.9,66.4,57.2,67.0,60.7,54.1,91,83,65,30.10,30.02,1,0,4,0.00
2013-10-5,74.6,67.6,62.4,67.4,63.3,60.1,94,86,77,30.13,30.06,1,0,2,0.22
2013-10-6,66.5,64.6,62.9,66.5,63.9,61.0,100,98,90,30.12,30.04,2,1,4,0.00
2013-10-7,70.2,63.9,54.6,68.7,61.7,48.7,96,92,79,30.04,29.77,2,1,7,0.47
2013-10-8,60.2,53.8,46.3,49.2,46.6,43.3,90,77,57,30.34,30.02,2,0,7,0.00
2013-10-9,57.3,51.6,45.5,46.7,43.5,38.7,85,74,62,30.40,30.29,2,0,5,0.00
2013-10-10,58.0,54.2,50.0,52.5,48.7,43.7,88,82,77,30.29,30.09,1,0,5,0.02
2013-10-11,62.6,59.5,55.9,57.7,54.4,51.1,86,84,80,30.12,30.03,1,0,5,0.00
2013-10-12,69.5,61.5,54.5,55.7,46.9,32.3,84,61,27,30.28,30.09,4,1,8,0.00
2013-10-13,61.1,56.4,51.3,51.3,48.7,46.9,85,76,65,30.40,30.28,2,1,5,0.00
2013-10-14,63.4,53.0,44.0,51.0,46.7,40.7,91,80,61,30.37,30.25,1,0,3,0.00
2013-10-15,68.5,54.5,44.4,54.8,46.7,41.1,90,76,58,30.28,30.13,2,0,3,0.00
2013-10-16,62.5,55.7,47.5,56.1,50.6,42.8,91,83,74,30.14,29.94,1,0,2,0.00
2013-10-17,69.7,62.7,58.3,60.5,58.4,55.9,94,86,68,29.95,29.71,2,0,5,0.03
2013-10-18,62.8,55.8,47.3,60.4,46.4,41.0,92,71,53,30.01,29.71,3,1,10,0.00
2013-10-19,58.5,49.9,39.5,49.7,42.7,35.8,90,77,57,30.01,29.77,1,0,4,0.09
2013-10-20,58.0,49.5,41.7,49.3,40.2,35.2,91,72,43,30.08,29.78,2,1,7,0.01
2013-10-21,62.7,48.8,38.1,43.0,38.3,33.7,86,69,41,30.16,29.99,1,0,6,0.00
2013-10-22,57.8,48.4,39.1,47.8,41.0,34.5,90,76,62,30.00,29.78,1,0,5,0.00
2013-10-23,51.7,43.8,36.9,39.4,34.6,31.1,80,71,53,29.84,29.64,1,0,6,0.01
2013-10-24,50.9,41.1,34.6,34.0,30.6,27.4,86,68,44,30.01,29.77,2,0,6,0.00
2013-10-25,50.4,41.0,33.7,33.2,30.2,27.7,80,66,46,30.23,30.00,3,1,8,0.00
2013-10-26,52.1,42.4,33.7,32.5,30.1,27.9,82,63,41,30.23,29.89,2,0,8,0.00
2013-10-27,55.5,45.8,39.5,34.4,31.8,29.8,72,59,43,30.13,29.86,3,0,9,0.00
2013-10-28,58.3,44.3,30.6,35.9,31.9,26.1,84,63,42,30.32,30.12,1,0,6,0.00
2013-10-29,55.7,45.0,35.7,34.4,31.8,29.3,79,61,42,30.41,30.31,1,0,5,0.00
2013-10-30,54.7,45.0,34.0,47.0,39.0,28.7,89,79,74,30.34,30.18,1,0,5,0.00
2013-10-31,58.6,53.1,43.1,56.5,50.6,39.9,94,91,87,30.24,29.81,2,0,3,0.06
2013-11-1,65.7,60.1,51.5,61.2,54.7,48.0,94,83,62,29.81,29.57,2,1,8,0.23
2013-11-2,64.1,53.9,45.9,48.3,43.5,38.3,89,69,49,29.81,29.65,2,0,7,0.00
2013-11-3,48.3,41.7,31.5,39.9,29.0,17.5,81,61,43,30.44,29.81,4,2,10,0.00
2013-11-4,46.1,34.9,28.1,22.0,18.0,14.8,68,51,30,30.64,30.44,2,0,7,0.00
2013-11-5,53.2,41.8,29.5,38.7,31.6,19.0,80,67,54,30.64,30.47,2,0,4,0.00
2013-11-6,58.5,50.2,42.1,46.6,42.5,37.0,85,75,61,30.49,30.08,3,0,6,0.00
2013-11-7,57.4,49.1,37.4,53.6,44.1,30.8,91,83,66,30.07,29.79,4,1,15,0.17
2013-11-8,48.0,39.2,33.1,32.8,28.0,23.5,83,65,44,30.22,29.94,5,2,11,0.00
2013-11-9,49.7,38.4,29.9,30.3,27.2,24.3,80,65,43,30.28,29.99,1,0,7,0.00
2013-11-10,56.5,44.4,35.3,37.6,31.5,26.7,81,62,44,30.05,29.85,5,2,14,0.01
2013-11-11,51.7,43.7,34.9,33.2,28.8,24.2,67,56,45,30.21,29.96,6,1,14,0.00
2013-11-12,46.1,34.0,26.0,33.9,21.8,14.7,79,61,50,30.28,29.92,5,3,14,0.01
2013-11-13,38.2,28.6,23.6,18.4,14.7,12.3,70,57,36,30.36,30.25,5,2,12,0.00
2013-11-14,50.5,36.9,26.9,20.8,17.6,13.4,70,47,29,30.25,30.17,2,1,9,0.00
2013-11-15,56.1,40.9,28.4,29.7,22.2,15.6,67,49,27,30.25,30.16,2,0,6,0.00
2013-11-16,59.4,47.1,38.2,44.4,38.9,25.1,89,74,55,30.33,30.23,2,0,5,0.04
2013-11-17,57.4,52.4,46.6,55.7,50.6,43.4,95,93,88,30.27,29.80,3,1,6,0.02
2013-11-18,62.0,53.5,42.6,58.8,41.7,27.6,96,67,39,29.82,29.63,4,2,12,0.22
2013-11-19,45.2,38.9,31.2,29.2,23.6,19.3,62,54,45,30.34,29.81,7,4,18,0.00
2013-11-20,45.6,32.9,24.2,19.5,15.3,7.5,69,50,26,30.59,30.33,6,2,12,0.00
2013-11-21,48.5,36.4,22.2,37.5,26.4,13.5,79,67,54,30.59,30.38,3,0,7,0.00
2013-11-22,53.0,47.5,43.3,46.4,43.0,37.0,92,84,77,30.39,29.93,3,0,7,0.05
2013-11-23,49.4,37.4,25.6,45.2,24.1,8.1,87,59,41,30.08,29.90,7,3,17,0.00
2013-11-24,26.2,21.5,18.4,5.9,2.7,0.7,51,44,36,30.35,30.01,9,5,24,0.00
2013-11-25,35.0,25.4,17.2,14.8,10.4,4.4,62,53,43,30.45,30.29,3,1,7,0.00
2013-11-26,41.1,31.8,28.7,39.5,22.9,12.8,94,71,49,30.30,29.74,4,1,6,0.64
2013-11-27,56.0,40.9,29.4,56.0,37.6,18.7,100,88,64,29.77,29.39,6,4,16,1.31
2013-11-28,33.3,27.3,24.1,19.1,14.4,11.1,73,59,42,30.43,29.77,6,3,17,0.00
2013-11-29,36.2,28.4,22.4,21.6,18.0,12.9,75,65,54,30.70,30.42,3,1,8,0.00
2013-11-30,31.8,26.5,18.0,24.9,16.3,9.0,78,65,47,30.70,30.35,3,1,6,0.00
2013-12-1,48.6,34.9,25.6,32.7,26.7,21.2,85,73,51,30.35,30.00,1,0,4,0.00
2013-12-2,45.4,36.1,28.5,32.9,28.7,24.8,86,75,57,30.00,29.88,1,0,3,0.00
2013-12-3,52.0,36.9,28.2,36.3,30.5,24.9,90,79,54,30.01,29.88,2,0,5,0.00
2013-12-4,49.1,40.4,30.0,41.0,34.6,26.5,92,80,64,30.13,30.00,2,0,3,0.00
2013-12-5,52.3,48.1,43.3,52.3,47.2,41.3,100,97,85,30.12,29.94,2,0,4,0.06
2013-12-6,55.2,43.1,34.5,55.2,40.8,31.9,100,92,83,30.15,29.88,5,2,12,0.70
2013-12-7,36.0,31.8,26.1,31.9,24.5,14.8,90,75,62,30.49,30.08,6,2,13,0.01
2013-12-8,29.3,25.8,22.2,24.5,17.0,12.6,87,70,56,30.56,30.34,3,0,8,0.10
2013-12-9,34.0,31.7,28.0,31.6,29.3,24.7,93,91,87,30.33,29.97,2,0,4,0.17
2013-12-10,32.2,28.3,19.2,28.9,24.8,14.3,92,87,81,30.09,29.88,2,0,6,0.31
2013-12-11,31.4,22.4,16.8,18.7,14.6,11.4,81,72,55,30.30,30.10,2,0,7,0.00
2013-12-12,27.6,19.3,14.7,14.9,8.2,4.5,76,62,46,30.33,30.12,5,1,10,0.00
2013-12-13,33.5,21.3,8.1,18.1,11.8,2.0,79,67,51,30.30,30.09,3,0,8,0.00
2013-12-14,26.5,22.4,18.3,24.0,16.9,14.2,90,79,69,30.44,29.76,5,2,11,0.23
2013-12-15,34.3,28.9,23.5,30.1,25.2,19.4,92,86,81,29.82,29.54,3,1,10,0.44
2013-12-16,29.3,20.2,11.0,22.0,11.6,4.9,86,69,52,30.19,29.81,4,1,11,0.00
2013-12-17,24.2,18.6,11.7,20.1,13.6,5.8,85,80,73,30.18,29.92,3,0,6,0.25
2013-12-18,36.2,23.7,15.0,22.4,16.5,10.6,85,74,57,30.16,29.90,3,1,9,0.00
2013-12-19,40.7,29.2,16.9,26.8,21.3,12.1,82,73,55,30.16,30.02,2,0,6,0.00
2013-12-20,46.3,36.5,28.6,34.0,28.7,24.4,84,74,57,30.10,29.97,1,0,5,0.01
2013-12-21,49.9,43.2,37.8,47.3,38.8,32.1,100,85,73,30.01,29.92,1,0,5,0.00
2013-12-22,62.6,56.6,47.1,62.5,55.3,47.1,100,96,85,29.98,29.81,3,1,13,0.04
2013-12-23,55.6,50.0,35.6,55.6,48.2,27.5,100,94,72,30.15,29.93,6,1,14,0.61
2013-12-24,36.2,30.6,21.0,27.3,20.2,9.1,81,65,56,30.33,30.10,6,3,14,0.02
2013-12-25,26.1,20.5,14.1,12.1,7.7,3.9,65,57,47,30.50,30.33,5,2,14,0.00
2013-12-26,31.2,24.4,17.0,25.1,18.5,11.8,84,78,63,30.39,30.15,1,0,5,0.01
2013-12-27,35.4,28.0,21.9,24.0,20.0,15.8,84,72,57,30.33,30.25,2,0,8,0.00
2013-12-28,46.9,34.2,23.9,30.2,24.0,17.8,82,67,51,30.27,30.08,2,0,10,0.00
2013-12-29,40.0,37.2,31.1,37.9,31.6,25.0,93,81,63,30.08,29.48,5,1,14,0.86
2013-12-30,40.5,31.5,18.6,34.4,24.0,7.7,91,74,58,30.16,29.71,5,2,10,0.00
2013-12-31,28.3,21.9,15.1,21.5,11.2,6.7,77,63,53,30.25,30.03,4,1,12,0.00
2014-1-1,31.2,24.1,15.2,18.9,14.1,7.5,76,65,58,30.37,30.20,1,0,5,0.00
2014-1-2,27.2,22.5,12.3,18.7,15.8,6.7,81,75,65,30.20,29.66,3,1,8,0.26